MBZ-SAT

导读

MBZ-SAT是一颗计划于2025年1月14日发射的卫星,其发射国家尚未最终确定(标注为TBD)。从命名来看,该卫星延续了现代商业和科研卫星的编号规则,结合当前全球航天发射活动的密集态势,它大概率服务于对地观测、通信技术验证或空间科学探测等领域。作为2025年年初安排的发射任务,MBZ-SAT的成功发射将进一步丰富全球低轨卫星星座资源,推动航天技术在灾害监测、地理测绘等领域的应用拓展,其后续动态值得持续关注。

基本信息
目录编号:
62626
目录名称:
MBZ-SAT
国际标识:
2025-009T
轨道中心:
EARTH
卫星名称:
MBZ-SAT
卫星全名:
MBZ-SAT
卫星状态:
在轨 (已飞行599 天)
发射日期:
2025-01-14 UTC
国别 :
(AE)
星等 :
--
轨道信息
数据来源 国际轨道数据
星历时间: 2026-09-04T13:04:27+0800
1天前
查看轨道信息
半长轴: 6890.407km
偏心率: 0.0006884
轨道倾角: 97.392°
近地点辐角 75.624°
升交点赤经 323.678°
平近点角 284.576°
近地点: 507.526km
远地点: 517.014km
周期: 94.870分钟
每日圈数: 15.178732
详细信息
使用方式:
暂无
2D轨道图
3D轨道图
轨道高度分析图
轨道倾角分析图
轨道综合分析图
查看轨道综合分析图